Snowfall_Accumulation
0.0 0.0 0.0 0.0 0.0 0.0 0.0 0.0 0.0 0.0 0.0 0.0 0.0 0.0 0.0 0.0 0.0 0.0 0.0 0.0 0.0 0.0 0.0 0.0 0.0 0.0 0.0 0.0 0.0 0.0 0.0 0.0 0.0 0.0 0.0 0.0 0.0 0.0 0.0 0.0 0.0 0.0 0.0 0.0
0.0 0.0 0.0 0.0 0.0 0.0 0.0 0.0 0.0 0.0 0.0 0.0 0.0 0.0 0.0 0.0 0.0 0.0 0.0 0.0 0.0 0.0 0.0 0.0 0.0 0.0 0.0 0.0 0.0 0.0 0.0 0.0 0.0 0.0 0.0 0.0 0.0 0.0 0.0 0.0 0.0 0.0 0.0 0.0
0.0 0.0 0.0 0.0 0.0 0.0 0.0 0.0 0.0 0.0 0.0 0.0 0.0 0.0 0.0 0.0 0.0 0.0 0.0 0.0 0.0 0.0 0.0 0.0 0.0 0.0 0.0 0.0 0.0 0.0 0.0 0.0 0.0 0.0 0.0 0.0 0.0 0.0 0.0 0.0 0.0 0.0 0.0 0.0
0.0 0.0 0.0 0.0 0.0 0.0 0.0 0.0 0.0 0.0 0.0 0.0 0.0 0.0 0.0 0.0 0.0 0.0 0.0 0.0 0.0 0.0 0.0 0.0 0.0 0.0 0.0 0.0 0.0 0.0 0.0 0.0 0.0 0.0 0.0 0.0 0.0 0.0 0.0 0.0 0.0 0.0 0.0 0.0
0.0 0.0 0.0 0.0 0.0 0.0 0.1 0.0 0.0 0.0 0.0 0.0 0.0 0.0 0.0 0.0 0.0 0.0 0.0 0.0 0.0 0.0 0.0 0.0 0.0 0.0 0.0 0.0 0.0 0.0 0.0 0.0 0.0 0.0 0.0 0.0 0.0 0.0 0.0 0.0 0.0 0.0 0.0 0.0
0.0 0.0 0.0 0.0 0.0 0.0 0.0 0.0 0.0 0.0 0.0 1.0 0.0 0.0 0.0 0.0 0.0 0.0 0.0 0.0 0.0 0.0 0.0 0.0 0.0 0.0 0.0 0.0 0.0 0.0 0.0 0.0 0.0 0.0 0.0 0.0 0.0 0.0 0.0 0.0 0.0 0.0 0.0 0.0
0.0 0.0 0.0 0.0 1.4 0.0 0.0 0.0 1.4 1.1 1.1 0.0 0.0 0.0 0.0 0.0 0.0 0.0 0.0 0.0 0.0 0.0 0.0 0.0 0.0 0.0 0.0 0.0 0.0 0.0 0.0 0.0 0.0 0.0 0.0 0.0 0.0 0.0 0.0 0.0 0.0 0.0 0.0 0.0
0.6 0.8 1.9 0.6 4.2 4.7 0.1 0.5 4.0 5.1 0.6 0.3 0.0 0.2 0.6 0.0 0.0 0.0 0.0 0.0 0.0 0.0 0.0 0.0 0.0 0.0 0.0 0.0 0.0 0.0 0.0 0.0 0.0 0.0 0.0 0.0 0.0 0.0 0.0 0.0 0.0 0.0 0.0 0.0
0.7 0.8 0.2 0.5 1.6 1.2 0.1 1.9 0.2 4.6 0.5 1.5 0.0 0.1 0.0 0.0 0.0 0.0 0.0 0.0 0.0 0.0 0.0 0.0 0.0 0.0 0.0 0.0 0.0 0.0 0.0 0.0 0.0 0.0 0.0 0.0 0.0 0.0 0.0 0.0 0.0 0.0 0.0 0.0
0.1 0.6 0.1 0.0 0.0 0.5 1.1 0.9 3.4 5.4 10.8 5.4 2.1 3.1 3.1 0.0 0.1 0.0 0.0 0.0 0.0 0.0 0.0 0.0 0.0 0.0 0.0 0.0 0.0 0.0 0.0 0.0 0.0 0.0 0.0 0.0 0.0 0.0 0.0 0.0 0.0 0.0 0.0 0.0
0.0 0.3 0.2 0.2 2.3 3.4 1.2 1.6 1.8 1.9 4.0 8.3 5.7 9.9 4.7 2.5 1.1 0.6 0.2 0.0 0.0 0.1 0.0 0.0 0.0 0.0 0.0 0.0 0.0 0.0 0.0 0.0 0.0 0.0 0.0 0.0 0.0 0.0 0.0 0.0 0.0 0.0 0.0 0.0
0.3 0.5 0.6 0.3 1.9 0.6 0.7 2.1 3.6 11.8 5.4 3.8 6.9 12.6 2.2 2.8 1.4 0.9 1.5 1.0 0.1 0.1 0.1 0.0 0.0 0.0 0.0 0.0 0.0 0.0 0.0 0.0 0.0 0.0 0.0 0.0 0.0 0.0 0.0 0.0 0.0 0.0 0.0 0.0
1.6 3.1 4.2 0.7 0.9 0.7 1.0 0.7 2.0 2.9 6.3 9.2 12.2 10.4 1.8 1.9 2.9 1.5 2.5 2.4 0.0 0.3 0.3 0.0 0.0 0.0 0.0 0.0 0.0 0.0 0.0 0.0 0.0 0.0 0.0 0.0 0.0 0.0 0.0 0.1 0.1 0.0 0.0 0.0
0.1 3.9 6.1 7.7 6.9 3.3 3.5 2.1 0.9 7.0 19.5 10.8 6.0 4.5 3.4 4.2 8.2 4.4 3.6 3.8 2.0 1.3 1.1 0.4 0.0 0.0 0.0 0.0 0.0 0.0 0.0 0.0 0.0 0.0 0.0 0.1 0.1 0.2 0.2 0.2 0.2 0.0 0.0 0.0
1.1 9.6 2.9 1.2 0.4 0.7 1.8 3.5 1.3 7.0 8.9 18.7 6.9 8.8 9.2 8.1 10.1 10.1 6.0 5.3 3.6 2.3 1.4 0.7 0.3 0.0 0.0 0.0 0.1 0.1 0.3 0.2 0.2 0.3 0.4 0.8 0.7 0.6 0.5 0.6 0.8 0.7 0.4 0.7
0.8 7.1 4.0 5.2 0.3 2.0 2.6 1.4 1.7 1.8 7.0 7.4 5.1 6.0 6.7 4.0 4.7 6.8 6.6 6.8 5.9 3.7 2.6 1.4 0.5 0.0 0.1 0.2 0.5 0.6 0.8 1.4 1.2 1.2 1.9 1.6 2.1 2.2 2.5 2.4 3.0 1.4 1.8 2.3
1.8 3.7 9.0 10.5 1.6 4.2 17.4 4.2 4.3 4.1 5.9 8.6 17.4 13.9 6.2 4.4 5.7 8.1 7.7 5.5 6.3 5.4 3.2 2.4 2.0 1.5 1.4 1.4 1.6 1.6 2.5 2.0 2.1 2.5 3.6 4.6 3.7 3.9 4.5 3.4 2.5 3.3 3.9 3.0
2.0 4.7 8.8 15.2 7.7 40.5 4.1 1.2 2.0 6.0 3.5 5.3 7.3 8.7 10.1 8.0 4.8 3.0 3.8 5.3 7.1 7.7 4.9 4.2 2.4 2.8 3.0 3.2 2.4 2.7 2.9 2.8 2.7 4.2 4.5 4.1 3.7 4.6 3.6 3.7 4.7 5.9 5.1 5.8
0.0 1.7 21.3 26.5 13.9 5.2 4.0 5.7 7.6 7.6 6.5 3.3 5.3 6.9 8.0 5.4 1.8 2.5 2.5 3.8 6.3 9.0 10.0 6.0 5.3 4.4 4.6 4.0 4.3 3.5 3.6 3.0 3.1 3.9 4.5 4.1 2.3 3.4 2.5 2.5 3.3 5.6 5.7 8.4
0.0 0.4 15.1 24.5 34.0 26.6 10.1 2.3 1.4 3.6 10.0 3.0 2.6 4.8 7.2 6.0 9.9 11.4 5.3 4.0 4.3 5.5 8.1 10.7 8.4 5.3 4.1 4.2 4.3 5.8 7.2 4.5 5.2 6.8 6.0 4.5 5.2 3.7 2.7 2.8 3.6 6.6 5.2 7.1
4.2 8.1 21.0 17.5 37.9 14.2 3.4 4.0 2.2 10.2 15.8 3.9 2.9 3.6 5.3 9.6 8.8 12.4 8.5 8.6 7.1 6.7 6.5 5.3 7.5 9.4 5.9 4.2 4.2 4.7 7.1 9.5 12.4 11.2 11.4 9.4 7.3 6.6 7.9 12.2 7.3 11.0 11.4 10.6
3.5 18.7 25.1 21.0 36.1 31.4 2.4 3.3 6.2 7.9 3.7 2.2 2.5 3.9 3.2 10.6 12.9 13.7 11.5 9.2 6.4 5.4 3.9 2.3 2.4 4.2 6.6 5.4 4.9 5.2 5.3 7.6 6.4 7.6 7.7 8.7 10.2 10.3 10.4 10.0 12.6 14.6 16.1 16.8
15.5 10.9 16.8 12.4 10.6 4.4 2.9 3.8 3.1 2.0 1.8 1.9 1.6 5.1 5.9 10.2 15.1 15.7 13.4 9.4 6.8 4.5 2.9 1.9 1.3 1.8 2.7 2.4 3.3 5.7 7.1 5.2 5.3 5.3 5.7 7.8 7.6 8.5 9.5 10.2 10.8 10.6 9.5 11.4
4.6 1.9 5.5 3.2 3.5 1.8 1.8 1.6 1.5 1.0 1.6 1.9 2.0 2.9 9.7 13.6 15.8 13.6 9.7 7.2 5.2 3.4 3.0 1.7 1.6 1.9 1.9 1.6 2.1 2.5 3.3 3.7 4.7 5.1 5.2 5.4 6.1 7.3 7.8 8.4 9.8 10.5 10.9 10.2
2.1 1.9 3.2 2.4 2.0 0.6 0.7 1.1 1.3 1.9 1.4 2.6 4.1 5.7 6.6 6.4 7.2 6.0 5.5 4.3 2.9 2.4 1.7 0.8 0.8 0.6 0.9 0.6 0.9 1.3 1.1 1.1 1.6 1.9 2.6 3.2 3.7 4.1 4.6 5.6 5.6 5.6 7.1 8.1
3.4 6.6 5.9 6.8 3.5 1.5 2.1 1.6 1.2 4.2 5.9 4.4 3.8 6.6 6.8 4.3 5.3 4.4 5.3 4.4 3.1 2.4 1.6 1.0 0.8 0.5 1.0 0.4 0.5 0.3 0.1 0.2 0.8 0.7 3.6 3.2 1.5 3.5 3.2 6.3 7.8 7.0 6.8 4.5